Time,TemperatureF,DewpointF,PressureIn,WindDirection,WindDirectionDegrees,WindSpeedMPH,WindSpeedGustMPH,Humidity,HourlyPrecipIn,Conditions,Clouds,dailyrainin,SoftwareType,DateUTC
2013-04-10 00:03:00,65.0,57.0,-100.00,NW,320,1.0,2.0,76,0.00,,,-99.99,,2013-04-10 04:03:00,
2013-04-10 00:13:00,64.0,57.0,-100.00,NNW,340,1.0,4.0,79,0.00,,,-99.99,,2013-04-10 04:13:00,
2013-04-10 00:23:00,64.0,57.0,-100.00,NNW,340,1.0,4.0,79,0.00,,,-99.99,,2013-04-10 04:23:00,
2013-04-10 00:33:00,63.0,57.0,-100.00,West,265,0.0,2.0,82,0.00,,,-99.99,,2013-04-10 04:33:00,
2013-04-10 00:43:00,62.0,57.0,-100.00,West,270,0.0,3.0,84,0.00,,,-99.99,,2013-04-10 04:43:00,
2013-04-10 00:52:00,62.0,57.0,-100.00,West,270,0.0,3.0,84,0.00,,,-99.99,,2013-04-10 04:52:00,
2013-04-10 01:03:00,61.0,57.0,-100.00,NW,310,0.0,2.0,86,0.00,,,-99.99,,2013-04-10 05:03:00,
2013-04-10 01:13:00,61.0,57.0,-100.00,South,170,0.0,1.0,87,0.00,,,-99.99,,2013-04-10 05:13:00,
2013-04-10 01:23:00,61.0,57.0,-100.00,South,170,0.0,1.0,87,0.00,,,-99.99,,2013-04-10 05:23:00,
2013-04-10 01:33:00,60.0,57.0,-100.00,WNW,285,0.0,2.0,88,0.00,,,-99.99,,2013-04-10 05:33:00,
2013-04-10 01:42:00,60.0,57.0,-100.00,SE,125,0.0,1.0,90,0.00,,,-99.99,,2013-04-10 05:42:00,
2013-04-10 01:53:00,60.0,57.0,-100.00,SE,125,0.0,1.0,90,0.00,,,-99.99,,2013-04-10 05:53:00,
2013-04-10 02:03:00,60.0,57.0,-100.00,North,350,1.0,2.0,90,0.00,,,-99.99,,2013-04-10 06:03:00,
2013-04-10 02:12:00,60.0,57.0,-100.00,NE,50,1.0,2.0,90,0.00,,,-99.99,,2013-04-10 06:12:00,
2013-04-10 02:22:00,60.0,57.0,-100.00,NE,50,1.0,2.0,90,0.00,,,-99.99,,2013-04-10 06:22:00,
2013-04-10 02:32:00,60.0,57.0,-100.00,NNE,25,1.0,3.0,90,0.00,,,-99.99,,2013-04-10 06:32:00,
2013-04-10 02:42:00,60.0,57.0,-100.00,NE,40,1.0,3.0,90,0.00,,,-99.99,,2013-04-10 06:42:00,
2013-04-10 02:52:00,60.0,57.0,-100.00,NE,40,1.0,3.0,90,0.00,,,-99.99,,2013-04-10 06:52:00,
2013-04-10 03:02:00,59.0,56.0,-100.00,SE,125,0.0,2.0,90,0.00,,,-99.99,,2013-04-10 07:02:00,
2013-04-10 03:12:00,59.0,56.0,-100.00,South,175,1.0,4.0,90,0.00,,,-99.99,,2013-04-10 07:12:00,
2013-04-10 03:22:00,59.0,56.0,-100.00,South,175,1.0,4.0,90,0.00,,,-99.99,,2013-04-10 07:22:00,
2013-04-10 03:32:00,58.0,56.0,-100.00,SE,130,1.0,3.0,92,0.00,,,-99.99,,2013-04-10 07:32:00,
2013-04-10 03:42:00,58.0,56.0,-100.00,SSW,210,0.0,1.0,92,0.00,,,-99.99,,2013-04-10 07:42:00,
2013-04-10 03:52:00,58.0,56.0,-100.00,SSW,210,0.0,1.0,92,0.00,,,-99.99,,2013-04-10 07:52:00,
2013-04-10 04:02:00,58.0,56.0,-100.00,NE,35,1.0,4.0,92,0.00,,,-99.99,,2013-04-10 08:02:00,
2013-04-10 04:12:00,58.0,56.0,-100.00,SE,135,1.0,6.0,93,0.00,,,-99.99,,2013-04-10 08:12:00,
2013-04-10 04:22:00,58.0,56.0,-100.00,SE,135,1.0,6.0,93,0.00,,,-99.99,,2013-04-10 08:22:00,
2013-04-10 04:32:00,58.0,56.0,-100.00,East,95,0.0,2.0,93,0.00,,,-99.99,,2013-04-10 08:32:00,
2013-04-10 04:42:00,58.0,56.0,-100.00,SE,135,0.0,2.0,93,0.00,,,-99.99,,2013-04-10 08:42:00,
2013-04-10 04:52:00,58.0,56.0,-100.00,SE,135,0.0,2.0,93,0.00,,,-99.99,,2013-04-10 08:52:00,
2013-04-10 05:02:00,58.0,56.0,-100.00,West,265,1.0,3.0,93,0.00,,,-99.99,,2013-04-10 09:02:00,
2013-04-10 05:12:00,58.0,56.0,-100.00,NNE,15,1.0,4.0,93,0.00,,,-99.99,,2013-04-10 09:12:00,
2013-04-10 05:22:00,58.0,56.0,-100.00,NNE,15,1.0,4.0,93,0.00,,,-99.99,,2013-04-10 09:22:00,
2013-04-10 05:32:00,58.0,56.0,-100.00,SW,225,0.0,1.0,94,0.00,,,-99.99,,2013-04-10 09:32:00,
2013-04-10 05:43:00,57.0,56.0,-100.00,WSW,250,2.0,4.0,94,0.00,,,-99.99,,2013-04-10 09:43:00,
2013-04-10 05:52:00,57.0,56.0,-100.00,WSW,250,2.0,4.0,94,0.00,,,-99.99,,2013-04-10 09:52:00,
2013-04-10 06:03:00,57.0,55.0,-100.00,ESE,120,1.0,4.0,94,0.00,,,-99.99,,2013-04-10 10:03:00,
2013-04-10 06:13:00,57.0,56.0,-100.00,East,80,0.0,4.0,95,0.00,,,-99.99,,2013-04-10 10:13:00,
2013-04-10 06:23:00,57.0,56.0,-100.00,East,80,0.0,4.0,95,0.00,,,-99.99,,2013-04-10 10:23:00,
2013-04-10 06:33:00,57.0,56.0,-100.00,SE,145,2.0,4.0,95,0.00,,,-99.99,,2013-04-10 10:33:00,
2013-04-10 06:42:00,58.0,56.0,-100.00,NE,40,1.0,3.0,94,0.00,,,-99.99,,2013-04-10 10:42:00,
2013-04-10 06:52:00,58.0,56.0,-100.00,NE,40,1.0,3.0,94,0.00,,,-99.99,,2013-04-10 10:52:00,
2013-04-10 07:02:00,58.0,57.0,-100.00,WNW,300,0.0,3.0,94,0.00,,,-99.99,,2013-04-10 11:02:00,
2013-04-10 07:12:00,59.0,57.0,-100.00,ESE,105,0.0,3.0,94,0.00,,,-99.99,,2013-04-10 11:12:00,
2013-04-10 07:22:00,59.0,57.0,-100.00,ESE,105,0.0,3.0,94,0.00,,,-99.99,,2013-04-10 11:22:00,
2013-04-10 07:32:00,59.0,57.0,-100.00,West,260,0.0,3.0,94,0.00,,,-99.99,,2013-04-10 11:32:00,
2013-04-10 07:42:00,60.0,58.0,-100.00,NNW,335,0.0,2.0,94,0.00,,,-99.99,,2013-04-10 11:42:00,
2013-04-10 07:52:00,60.0,58.0,-100.00,NNW,335,0.0,2.0,94,0.00,,,-99.99,,2013-04-10 11:52:00,
2013-04-10 08:03:00,60.0,58.0,-100.00,WNW,285,0.0,3.0,92,0.00,,,-99.99,,2013-04-10 12:03:00,
2013-04-10 08:12:00,62.0,59.0,-100.00,North,0,1.0,4.0,91,0.00,,,-99.99,,2013-04-10 12:12:00,
2013-04-10 08:23:00,62.0,59.0,-100.00,North,0,1.0,4.0,91,0.00,,,-99.99,,2013-04-10 12:23:00,
2013-04-10 08:33:00,63.0,60.0,-100.00,SE,140,0.0,3.0,90,0.00,,,-99.99,,2013-04-10 12:33:00,
2013-04-10 08:42:00,65.0,60.0,-100.00,WNW,285,0.0,2.0,86,0.00,,,-99.99,,2013-04-10 12:42:00,
2013-04-10 08:52:00,65.0,60.0,-100.00,WNW,285,0.0,2.0,86,0.00,,,-99.99,,2013-04-10 12:52:00,
2013-04-10 09:02:00,67.0,61.0,-100.00,WSW,245,0.0,2.0,81,0.00,,,-99.99,,2013-04-10 13:02:00,
2013-04-10 09:12:00,69.0,62.0,-100.00,North,-999,-999.0,-999.0,78,0.00,,,-99.99,,2013-04-10 13:12:00,
2013-04-10 09:23:00,69.0,62.0,-100.00,North,-999,-999.0,-999.0,78,0.00,,,-99.99,,2013-04-10 13:23:00,
2013-04-10 09:32:00,71.0,62.0,-100.00,SW,230,0.0,2.0,73,0.00,,,-99.99,,2013-04-10 13:32:00,
2013-04-10 09:43:00,75.0,62.0,-100.00,SW,215,1.0,3.0,65,0.00,,,-99.99,,2013-04-10 13:43:00,
2013-04-10 09:52:00,75.0,62.0,-100.00,SW,215,1.0,3.0,65,0.00,,,-99.99,,2013-04-10 13:52:00,
2013-04-10 10:02:00,77.0,62.0,-100.00,WSW,240,2.0,4.0,59,0.00,,,-99.99,,2013-04-10 14:02:00,
2013-04-10 10:12:00,78.0,61.0,-100.00,North,-999,-999.0,-999.0,56,0.00,,,-99.99,,2013-04-10 14:12:00,
2013-04-10 10:22:00,78.0,61.0,-100.00,North,-999,-999.0,-999.0,56,0.00,,,-99.99,,2013-04-10 14:22:00,
2013-04-10 10:33:00,80.0,61.0,-100.00,NNW,340,8.0,24.0,52,0.00,,,-99.99,,2013-04-10 14:33:00,
2013-04-10 10:42:00,81.0,61.0,-100.00,NW,305,14.0,26.0,51,0.00,,,-99.99,,2013-04-10 14:42:00,
2013-04-10 10:52:00,81.0,61.0,-100.00,NW,305,14.0,26.0,51,0.00,,,-99.99,,2013-04-10 14:52:00,
2013-04-10 11:03:00,81.0,61.0,-100.00,West,280,13.0,26.0,50,0.00,,,-99.99,,2013-04-10 15:03:00,
2013-04-10 11:12:00,82.0,61.0,-100.00,West,270,17.0,28.0,49,0.00,,,-99.99,,2013-04-10 15:12:00,
2013-04-10 11:22:00,82.0,61.0,-100.00,West,270,17.0,28.0,49,0.00,,,-99.99,,2013-04-10 15:22:00,
2013-04-10 11:33:00,82.0,61.0,-100.00,NW,310,10.0,24.0,48,0.00,,,-99.99,,2013-04-10 15:33:00,
2013-04-10 11:42:00,83.0,60.0,-100.00,WNW,300,10.0,28.0,47,0.00,,,-99.99,,2013-04-10 15:42:00,
2013-04-10 11:52:00,83.0,60.0,-100.00,WNW,300,10.0,28.0,47,0.00,,,-99.99,,2013-04-10 15:52:00,
2013-04-10 12:03:00,83.0,60.0,-100.00,WNW,300,11.0,23.0,46,0.00,,,-99.99,,2013-04-10 16:03:00,
2013-04-10 12:13:00,83.0,60.0,-100.00,West,280,17.0,27.0,46,0.00,,,-99.99,,2013-04-10 16:13:00,
2013-04-10 12:23:00,83.0,60.0,-100.00,West,280,17.0,27.0,46,0.00,,,-99.99,,2013-04-10 16:23:00,
2013-04-10 12:33:00,83.0,60.0,-100.00,NNW,330,12.0,24.0,45,0.00,,,-99.99,,2013-04-10 16:33:00,
2013-04-10 12:43:00,84.0,60.0,-100.00,WNW,300,9.0,20.0,44,0.00,,,-99.99,,2013-04-10 16:43:00,
2013-04-10 12:52:00,84.0,60.0,-100.00,WNW,300,9.0,20.0,44,0.00,,,-99.99,,2013-04-10 16:52:00,
2013-04-10 13:03:00,85.0,60.0,-100.00,West,280,9.0,24.0,43,0.00,,,-99.99,,2013-04-10 17:03:00,
2013-04-10 13:12:00,85.0,60.0,-100.00,West,280,8.0,17.0,43,0.00,,,-99.99,,2013-04-10 17:12:00,
2013-04-10 13:22:00,85.0,60.0,-100.00,West,280,8.0,17.0,43,0.00,,,-99.99,,2013-04-10 17:22:00,
2013-04-10 13:33:00,85.0,60.0,-100.00,WNW,285,8.0,13.0,43,0.00,,,-99.99,,2013-04-10 17:33:00,
2013-04-10 13:43:00,85.0,60.0,-100.00,WNW,300,9.0,17.0,43,0.00,,,-99.99,,2013-04-10 17:43:00,
2013-04-10 13:52:00,85.0,60.0,-100.00,WNW,300,9.0,17.0,43,0.00,,,-99.99,,2013-04-10 17:52:00,
2013-04-10 14:03:00,85.0,60.0,-100.00,NW,310,10.0,20.0,43,0.00,,,-99.99,,2013-04-10 18:03:00,
2013-04-10 14:33:00,88.0,60.0,-100.00,WNW,285,8.0,19.0,39,0.00,,,-99.99,,2013-04-10 18:33:00,
2013-04-10 14:42:00,87.0,60.0,-100.00,West,280,10.0,19.0,39,0.00,,,-99.99,,2013-04-10 18:42:00,
2013-04-10 14:52:00,87.0,60.0,-100.00,West,280,10.0,19.0,39,0.00,,,-99.99,,2013-04-10 18:52:00,
2013-04-10 15:03:00,88.0,59.0,-100.00,NW,305,7.0,16.0,38,0.00,,,-99.99,,2013-04-10 19:03:00,
2013-04-10 15:12:00,89.0,60.0,-100.00,West,260,5.0,16.0,38,0.00,,,-99.99,,2013-04-10 19:12:00,
2013-04-10 15:22:00,89.0,60.0,-100.00,West,260,5.0,16.0,38,0.00,,,-99.99,,2013-04-10 19:22:00,
2013-04-10 15:33:00,89.0,58.0,-100.00,WSW,245,9.0,18.0,36,0.00,,,-99.99,,2013-04-10 19:33:00,
2013-04-10 15:42:00,89.0,58.0,-100.00,West,280,9.0,18.0,36,0.00,,,-99.99,,2013-04-10 19:42:00,
2013-04-10 15:52:00,89.0,58.0,-100.00,West,280,9.0,18.0,36,0.00,,,-99.99,,2013-04-10 19:52:00,
2013-04-10 16:03:00,88.0,58.0,-100.00,WSW,255,6.0,21.0,36,0.00,,,-99.99,,2013-04-10 20:03:00,
2013-04-10 16:12:00,89.0,58.0,-100.00,West,265,7.0,21.0,36,0.00,,,-99.99,,2013-04-10 20:12:00,
2013-04-10 16:23:00,89.0,58.0,-100.00,West,265,7.0,21.0,36,0.00,,,-99.99,,2013-04-10 20:23:00,
2013-04-10 16:33:00,88.0,57.0,-100.00,WSW,255,7.0,17.0,35,0.00,,,-99.99,,2013-04-10 20:33:00,
2013-04-10 16:42:00,89.0,58.0,-100.00,West,280,7.0,14.0,35,0.00,,,-99.99,,2013-04-10 20:42:00,
2013-04-10 16:52:00,89.0,58.0,-100.00,West,280,7.0,14.0,35,0.00,,,-99.99,,2013-04-10 20:52:00,
2013-04-10 17:03:00,90.0,58.0,-100.00,West,265,7.0,17.0,34,0.00,,,-99.99,,2013-04-10 21:03:00,
2013-04-10 17:13:00,89.0,58.0,-100.00,WSW,250,7.0,19.0,35,0.00,,,-99.99,,2013-04-10 21:13:00,
2013-04-10 17:22:00,89.0,58.0,-100.00,WSW,250,7.0,19.0,35,0.00,,,-99.99,,2013-04-10 21:22:00,
2013-04-10 17:33:00,89.0,58.0,-100.00,WSW,245,7.0,17.0,35,0.00,,,-99.99,,2013-04-10 21:33:00,
2013-04-10 17:43:00,89.0,58.0,-100.00,SW,235,7.0,16.0,35,0.00,,,-99.99,,2013-04-10 21:43:00,
2013-04-10 17:53:00,89.0,58.0,-100.00,SW,235,7.0,16.0,35,0.00,,,-99.99,,2013-04-10 21:53:00,
2013-04-10 18:03:00,88.0,57.0,-100.00,West,270,7.0,14.0,35,0.00,,,-99.99,,2013-04-10 22:03:00,
2013-04-10 18:13:00,88.0,57.0,-100.00,West,280,3.0,10.0,35,0.00,,,-99.99,,2013-04-10 22:13:00,
2013-04-10 18:23:00,88.0,57.0,-100.00,West,280,3.0,10.0,35,0.00,,,-99.99,,2013-04-10 22:23:00,
2013-04-10 18:34:00,87.0,56.0,-100.00,West,275,7.0,14.0,35,0.00,,,-99.99,,2013-04-10 22:34:00,
2013-04-10 18:42:00,87.0,56.0,-100.00,WSW,255,7.0,19.0,35,0.00,,,-99.99,,2013-04-10 22:42:00,
2013-04-10 18:52:00,87.0,56.0,-100.00,WSW,255,7.0,19.0,35,0.00,,,-99.99,,2013-04-10 22:52:00,
2013-04-10 19:03:00,87.0,56.0,-100.00,West,260,3.0,12.0,35,0.00,,,-99.99,,2013-04-10 23:03:00,
2013-04-10 19:12:00,87.0,56.0,-100.00,West,275,5.0,9.0,35,0.00,,,-99.99,,2013-04-10 23:12:00,
2013-04-10 19:22:00,87.0,56.0,-100.00,West,275,5.0,9.0,35,0.00,,,-99.99,,2013-04-10 23:22:00,
2013-04-10 19:33:00,86.0,55.0,-100.00,West,280,4.0,11.0,35,0.00,,,-99.99,,2013-04-10 23:33:00,
2013-04-10 19:42:00,85.0,55.0,-100.00,WNW,290,2.0,6.0,36,0.00,,,-99.99,,2013-04-10 23:42:00,
2013-04-10 19:52:00,85.0,55.0,-100.00,WNW,290,2.0,6.0,36,0.00,,,-99.99,,2013-04-10 23:52:00,
2013-04-10 20:02:00,85.0,55.0,-100.00,NW,325,2.0,7.0,36,0.00,,,-99.99,,2013-04-11 00:02:00,
2013-04-10 20:13:00,84.0,55.0,-100.00,West,280,4.0,6.0,37,0.00,,,-99.99,,2013-04-11 00:13:00,
2013-04-10 20:22:00,84.0,55.0,-100.00,West,280,4.0,6.0,37,0.00,,,-99.99,,2013-04-11 00:22:00,
2013-04-10 20:32:00,84.0,55.0,-100.00,WNW,295,2.0,10.0,37,0.00,,,-99.99,,2013-04-11 00:32:00,
2013-04-10 20:42:00,83.0,55.0,-100.00,West,270,4.0,7.0,38,0.00,,,-99.99,,2013-04-11 00:42:00,
2013-04-10 20:52:00,83.0,55.0,-100.00,West,270,4.0,7.0,38,0.00,,,-99.99,,2013-04-11 00:52:00,
2013-04-10 21:02:00,84.0,56.0,-100.00,NW,305,2.0,6.0,38,0.00,,,-99.99,,2013-04-11 01:02:00,
2013-04-10 21:12:00,84.0,56.0,-100.00,NW,325,3.0,7.0,38,0.00,,,-99.99,,2013-04-11 01:12:00,
2013-04-10 21:22:00,84.0,56.0,-100.00,NW,325,3.0,7.0,38,0.00,,,-99.99,,2013-04-11 01:22:00,
2013-04-10 21:32:00,84.0,55.0,-100.00,NW,310,2.0,8.0,38,0.00,,,-99.99,,2013-04-11 01:32:00,
2013-04-10 21:42:00,83.0,55.0,-100.00,WNW,285,2.0,6.0,38,0.00,,,-99.99,,2013-04-11 01:42:00,
2013-04-10 21:52:00,83.0,55.0,-100.00,WNW,285,2.0,6.0,38,0.00,,,-99.99,,2013-04-11 01:52:00,
2013-04-10 22:03:00,81.0,55.0,-100.00,West,280,1.0,3.0,40,0.00,,,-99.99,,2013-04-11 02:03:00,
2013-04-10 22:12:00,79.0,55.0,-100.00,North,5,2.0,4.0,43,0.00,,,-99.99,,2013-04-11 02:12:00,
2013-04-10 22:22:00,79.0,55.0,-100.00,North,5,2.0,4.0,43,0.00,,,-99.99,,2013-04-11 02:22:00,
2013-04-10 22:32:00,79.0,55.0,-100.00,NNW,340,3.0,7.0,44,0.00,,,-99.99,,2013-04-11 02:32:00,
2013-04-10 22:42:00,79.0,55.0,-100.00,NNW,340,3.0,7.0,44,0.00,,,-99.99,,2013-04-11 02:42:00,
2013-04-10 22:52:00,80.0,56.0,-100.00,NW,305,4.0,6.0,43,0.00,,,-99.99,,2013-04-11 02:52:00,
2013-04-10 23:02:00,81.0,56.0,-100.00,NW,325,4.0,7.0,43,0.00,,,-99.99,,2013-04-11 03:02:00,
2013-04-10 23:12:00,74.0,57.0,-100.00,NW,325,9.0,35.0,56,0.00,,,-99.99,,2013-04-11 03:12:00,
2013-04-10 23:22:00,74.0,57.0,-100.00,NW,325,9.0,35.0,56,0.00,,,-99.99,,2013-04-11 03:22:00,
2013-04-10 23:33:00,70.0,61.0,-100.00,NNE,20,9.0,22.0,74,0.00,,,-99.99,,2013-04-11 03:33:00,
2013-04-10 23:43:00,69.0,62.0,-100.00,NE,35,9.0,25.0,77,0.00,,,-99.99,,2013-04-11 03:43:00,
2013-04-10 23:53:00,69.0,62.0,-100.00,NE,35,9.0,25.0,77,0.00,,,-99.99,,2013-04-11 03:53:00,